Volver al catálogo

YZ-1 R/B

ActivoMEO
NORAD 44795·ROCKET BODY·🇨🇳 China

Lanzado Nov 23, 2019 desde Xichang Satellite Launch Center

Loading…

Próximos Pases (próximas 24 horas)

TLE

ActualizadoSource: Space-Track

Época: Sep 11, 2026, 19:49 UTC

1 44795U 19078C   26254.82584000 -.00000056  00000-0  00000-0 0  9992
2 44795  54.1342 305.2010 0074990  53.8253 306.9380  1.78050188 44258

Sigue YZ-1 R/B en tiempo real con AllMySat

Download on the App Store